Regional Weather Roundup
Issued by NWS

Home | Current Version | Previous Version | Graphics & Text | Print | Product List | Glossary On
Versions: 1 2 3 4 5 6 7 8 9 10 11 12 13 14 15 16 17 18 19 20 21 22 23 24 25 26 27 28 29 30 31 32 33 34 35 36 37 38 39 40 41 42 43 44 45 46 47 48 49 50
000
ASUS43 KDMX 282207
RWRIA

WEATHER ROUNDUP FOR IOWA
NATIONAL WEATHER SERVICE DES MOINES IA
500 PM CDT SAT MAR 28 2015

NOTE: "FAIR" INDICATES FEW OR NO CLOUDS BELOW 12,000 FEET WITH NO
SIGNIFICANT WEATHER AND/OR OBSTRUCTIONS TO VISIBILITY.

* - THESE STATIONS ARE NOT NWS STATIONS...THUS NOT UNDER NWS
QUALITY CONTROL.  THEY ALSO DO NOT REPORT WEATHER SUCH
AS PRECIPITATION OR FOG.

IAZ001>003-012>014-020>022-031>034-043>046-282300-
   NORTHWEST IOWA

CITY           SKY/WX    TMP DP  RH WIND       PRES   REMARKS
CARROLL *      SUNNY     48  25  40 SE12G22   30.08F
CHEROKEE *     SUNNY     52  28  40 S17G23    30.04F
DENISON *      SUNNY     50  27  40 S20       30.04F
LE MARS *      SUNNY     54  27  35 S17G26    30.01F
ORANGE CITY *  SUNNY     52  23  32 S20G25    30.01F
SHELDON *      SUNNY     50  28  43 S21       30.00F
SIOUX CITY     SUNNY     55  26  32 SE16G24   30.02F
SPENCER        SUNNY     50  29  44 S18G30    30.04F
STORM LAKE *   SUNNY     48  27  43 S20G26    30.05F
$$

IAZ055>058-069>071-079>083-090>094-282300-
   SOUTHWEST IOWA

CITY           SKY/WX    TMP DP  RH WIND       PRES   REMARKS
ATLANTIC *     SUNNY     50  27  40 SE13G21   30.08F
AUDUBON *      SUNNY     52  25  35 S17       30.09F
CLARINDA *     SUNNY     52  30  43 S15G22    30.11F
COUNCIL BLFS * SUNNY     52  30  43 S15G24    30.06F
CRESTON *      SUNNY     48  27  43 SE12G18   30.12S
HARLAN  *      SUNNY     50  27  40 SE15G24   30.10F
LAMONI         SUNNY     48  25  40 SE12G18   30.13F
RED OAK *      SUNNY     52  28  40 SE15      30.09F
SHENANDOAH *   SUNNY     54  32  43 SE16      30.10S
$$

IAZ047>049-059>061-072>074-084-282300-
   CENTRAL IOWA

CITY           SKY/WX    TMP DP  RH WIND       PRES   REMARKS
AMES           SUNNY     48  17  29 SE15G23   30.13F
ANKENY *       SUNNY     48  18  29 SE13G22   30.14F
CHARITON *     SUNNY     48  19  32 SE9G16    30.14F
DES MOINES     MOSUNNY   50  16  25 S13       30.14F
GRINNELL*      SUNNY     45  14  29 SE12G17   30.17F
KNOXVILLE *    SUNNY     46  16  29 S12       30.14F
MARSHALLTOWN   SUNNY     45  15  30 SE15G21   30.15F
PELLA *        SUNNY     48  21  34 S12       30.18F
PERRY *          N/A     50  21  32 S14G21    30.11F
$$

IAZ004>006-015-016-023>025-035-036-282300-
   NORTH CENTRAL IOWA

CITY           SKY/WX    TMP DP  RH WIND       PRES   REMARKS
ALGONA *       SUNNY     46  23  39 S20       30.09F
CLARION *      SUNNY     46  25  42 S21       30.12S
ESTHERVILLE    SUNNY     47  25  42 S24G30    30.05F
FORT DODGE *   SUNNY     48  21  34 SE13G24   30.11F
MASON CITY     SUNNY     45  21  38 S14       30.13F
FOREST CITY *  SUNNY     43  23  45 S16G24    30.11F
IOWA FALLS *     N/A     46  21  36 SE15      30.14F
$$

IAZ007>011-017>019-026>030-037>042-050>054-066-282300-
   NORTHEAST IOWA

CITY           SKY/WX    TMP DP  RH WIND       PRES   REMARKS
CEDAR RAPIDS   SUNNY     43  12  28 SE9       30.20F
CHARLES CITY * SUNNY     43  19  39 S16G23    30.15F
CLINTON *      SUNNY     39  12  33 S5        30.29S
DECORAH *      SUNNY     37  16  41 S9        30.17F WCI  31
DUBUQUE        SUNNY     39  10  30 S12G17    30.23F WCI  32
MONTICELLO *   SUNNY     41  14  33 S15       30.22F
OELWEIN *      SUNNY     41  14  33 S13G20    30.19F
WATERLOO       SUNNY     44  14  29 S16       30.17F
$$

IAZ064-065-067-068-078-282300-
   EAST CENTRAL IOWA

CITY           SKY/WX    TMP DP  RH WIND       PRES   REMARKS
DAVENPORT      SUNNY     41  11  29 SE15      30.26F
IOWA CITY      SUNNY     43  13  29 SE14      30.24F
MT. PLEASANT * SUNNY     45  14  29 SE12      30.23F
MUSCATINE *    SUNNY     43  12  28 SE9G16    30.25F
QUAD CITIES    SUNNY     42   9  25 SE8       30.26F
$$

IAZ062-063-075>077-085>089-095>099-282300-
   SOUTHEAST IOWA

CITY           SKY/WX    TMP DP  RH WIND       PRES   REMARKS
BURLINGTON     SUNNY     43  12  28 VRB6      30.24F
FAIRFIELD *    SUNNY     45  14  29 SE8G17    30.21F
FORT MADISON * SUNNY     43  18  36 S8        30.24F
KEOKUK *       SUNNY     45  16  31 SE12      30.23F
OSKALOOSA *      N/A     46  14  27 S9G16     30.19F
CENTERVILLE *  SUNNY     46  19  34 SE10G16   30.18F
OTTUMWA        SUNNY     46  13  26 SE15      30.19F
WASHINGTON *   SUNNY     45  12  26 SE14      30.22F
$$

ABBREVIATIONS USED IN REMARKS
   TC - TEMPERATURES IN CELSIUS
  WCI - WIND CHILL INDEX
   HX - HEAT INDEX
  VSB - VISIBILITY
$$



USA.gov is the U.S. government's official web portal to all federal, state and local government web resources and services.